Location: Bernadets
(43.3537°N, 0.3167°E)
Time: 22:00:30
(UTC+00:00)

SJ-11-01 - Pass Details

Date: 24 October 2021
Orbit: 684 x 700 km, 97.9° (Epoch: 06 December)

Event Time Altitude Azimuth Distance (km) Brightness Sun altitude
Rises 18:08:24 0° 159° (SSE) 3,044 7.4 -12.8°
Reaches altitude 10° 18:10:38 10° 158° (SSE) 2,135 6.6 -13.2°
Maximum altitude 18:15:17 71° 75° (ENE) 733 4.2 -14.1°
Drops below altitude 10° 18:20:00 10° 351° (N) 2,161 6.9 -14.9°
Sets 18:22:16 0° 350° (N) 3,085 7.7 -15.3°
